Tracking 17141 objects as of 7-July-2015
HD Live streaming from Space Station

HYLAS 2

Track HYLAS 2 now!
HYLAS 2 is classified as:


NORAD ID: 38741
Int'l Code: 2012-043B
Perigee: 35,786.3 km
Apogee: 35,802.3 km
Inclination: 0.0 °
Period: 1,436.1 minutes
Semi major axis: 42165 km
RCS: 1.4658 m2 (large)
Launch date: August 2, 2012
Source: United Kingdom (UK)

HYLAS 2, owned by Avanti Communications of London, carries 24 Ka-band transponders and is designed to provide broadband links to African customers. Hylas 2 is likely to be operated at 31 degrees east.
Your satellite tracking list
Your tracking list is empty





NASA's NSSDC Master Catalog

Two Line Element Set (TLE):
1 38741U 12043B   15186.99649568  .00000142  00000-0  00000+0 0  9996
2 38741 000.0379 254.5332 0001906 225.0138 193.8444 01.00269826 10744

Source of the keplerian elements: AFSPC

N2YO: 377